Regional Weather Roundup
Issued by NWS

Home | Current Version | Previous Version | Text Only | Print | Product List | Glossary Off
Versions: 1 2 3 4 5 6 7 8 9 10 11 12 13 14 15 16 17 18 19 20 21 22 23 24 25 26 27 28 29 30 31 32 33 34 35 36 37 38 39 40 41 42 43 44 45 46 47 48 49 50

000
ASUS43 KLSX 101357
RWRMO

WEATHER SUMMARY FOR MISSOURI
NATIONAL WEATHER SERVICE SPRINGFIELD MO
800 AM CST SUN DEC 10 2017

NOTE: "FAIR" INDICATES FEW OR NO CLOUDS BELOW 12,000 FEET WITH NO
       SIGNIFICANT WEATHER AND/OR OBSTRUCTIONS TO VISIBILITY.
       CURRENT SKY AND/OR WEATHER CONDITIONS ARE NOT AVAILABLE FOR
       CHILLICOTHE AND FARMINGTON.

MOZ001>031-035>038-043-044-053-054-101500-
...NORTHERN AND WESTERN MISSOURI...

CITY           SKY/WX    TMP DP  RH WIND       PRES   REMARKS
KANSAS CTY INT PTCLDY    33  33 100 SW14      30.07R WCI  23
LEE`S SUMMIT   CLEAR     34  22  61 W10       30.08R WCI  26
ST JOSEPH      CLOUDY    34  23  64 W7        30.08R WCI  28
CHILLICOTHE      N/A     32  21  64 VRB5      30.03S WCI  27

$$
MOZ066>068-077>081-088>096-101>105-101500-
...SOUTHWEST MISSOURI...

CITY           SKY/WX    TMP DP  RH WIND       PRES   REMARKS
SPRINGFIELD    CLEAR     34  23  64 SW9       30.12F WCI  27
JOPLIN         CLEAR     38  25  59 SW12      30.18R
BRANSON        CLEAR     37  19  48 SW10G16   30.17F

$$
MOZ032>034-039>042-045>050-055>058-069>072-101500-
...CENTRAL MISSOURI...

CITY           SKY/WX    TMP DP  RH WIND       PRES   REMARKS
COLUMBIA       NOT AVBL
JEFFERSON CITY CLEAR     29  19  66 CALM      30.08F
ROLLA          CLEAR     28  19  69 S15       30.06F WCI  16
SEDALIA        CLEAR     33  22  63 SW12      30.08R WCI  24
WARRENSBURG    CLEAR     30  23  74 SW7       30.08S WCI  23

$$
MOZ051-052-059>065-101500-
...EAST CENTRAL MISSOURI...

CITY           SKY/WX    TMP DP  RH WIND       PRES   REMARKS
ST LOUIS INTL  PTCLDY    30  19  63 S13       30.07F WCI  20

$$
MOZ072>076-082>087-097>100-106>115-101500-
...SOUTH CENTRAL AND SOUTHEAST MISSOURI...

CITY           SKY/WX    TMP DP  RH WIND       PRES   REMARKS
CAPE GIRARDEAU CLEAR     28  21  75 SW9       30.23R WCI  19
POPLAR BLUFF   CLEAR     26  22  84 CALM      30.24S
WEST PLAINS    CLOUDY    27  20  75 SW6       30.17F WCI  20

$$


USA.gov is the U.S. government's official web portal to all federal, state and local government web resources and services.